DEOSL EDDL-EHEH

Flight info

Callsign DEOSL
Flight time 0h 26m
Altitude 4000
Route LMA2Z LMA DCT VEBAK/N0156F050 T474 LAA/N0155F040 DCT ROTEK
Aircraft PA24/L-SDGRY/S

Departure

Time 2026-04-30 14:18
Airport Düsseldorf Airport (EDDL)

Arrival

Time 2026-04-30 14:45
Airport Eindhoven Airport (EHEH)
Time Latitude Longitude Altitude Speed Heading
2026-04-30 14:16 51.27996 6.75276 117 ft 3 kts 36°
2026-04-30 14:16 51.28091 6.75473 122 ft 60 kts 54°
2026-04-30 14:17 51.28225 6.75759 125 ft 0 kts 50°
2026-04-30 14:17 51.28273 6.75857 121 ft 47 kts 50°
2026-04-30 14:17 51.28605 6.76541 166 ft 96 kts 60°
2026-04-30 14:18 51.28982 6.77358 466 ft 96 kts 60°
2026-04-30 14:18 51.29423 6.78326 599 ft 120 kts 57°
2026-04-30 14:18 51.30518 6.80557 1598 ft 134 kts 60°
2026-04-30 14:19 51.31522 6.83047 2628 ft 140 kts 58°
2026-04-30 14:19 51.32131 6.84287 2998 ft 146 kts 57°
2026-04-30 14:19 51.32780 6.85602 3325 ft 153 kts 57°
2026-04-30 14:20 51.33428 6.86999 3578 ft 161 kts 66°
2026-04-30 14:20 51.33926 6.88562 3979 ft 156 kts 66°
2026-04-30 14:20 51.34422 6.91897 4645 ft 151 kts 77°
2026-04-30 14:21 51.35022 6.93309 4856 ft 161 kts 43°
2026-04-30 14:21 51.36028 6.94132 5213 ft 166 kts 32°
2026-04-30 14:21 51.38207 6.95532 5716 ft 174 kts 20°
2026-04-30 14:22 51.39422 6.95364 5947 ft 182 kts 343°
2026-04-30 14:22 51.41674 6.93361 6517 ft 191 kts 313°
2026-04-30 14:22 51.42214 6.91400 6771 ft 194 kts 277°
2026-04-30 14:23 51.41290 6.87708 7428 ft 178 kts 214°
2026-04-30 14:23 51.40473 6.84080 7839 ft 189 kts 279°
2026-04-30 14:24 51.40600 6.79873 8419 ft 192 kts 261°
2026-04-30 14:24 51.40416 6.77685 8487 ft 204 kts 257°
2026-04-30 14:25 51.39767 6.73020 8419 ft 225 kts 251°
2026-04-30 14:25 51.38863 6.68038 8282 ft 237 kts 249°
2026-04-30 14:26 51.37578 6.63193 8245 ft 236 kts 243°
2026-04-30 14:26 51.37245 6.60629 8248 ft 237 kts 268°
2026-04-30 14:26 51.38309 6.55713 8325 ft 239 kts 295°
2026-04-30 14:27 51.39019 6.53302 8292 ft 242 kts 296°
2026-04-30 14:27 51.39753 6.50826 8248 ft 244 kts 296°
2026-04-30 14:27 51.40477 6.48364 8266 ft 243 kts 296°
2026-04-30 14:28 51.41913 6.43492 8278 ft 244 kts 296°
2026-04-30 14:28 51.42637 6.41042 8286 ft 244 kts 296°
2026-04-30 14:28 51.43369 6.38562 8284 ft 245 kts 296°
2026-04-30 14:28 51.44103 6.36084 8268 ft 245 kts 296°
2026-04-30 14:29 51.45561 6.31172 8285 ft 245 kts 296°
2026-04-30 14:29 51.46792 6.27019 8283 ft 245 kts 296°
2026-04-30 14:30 51.48555 6.18507 8295 ft 242 kts 267°
2026-04-30 14:31 51.47819 6.13346 8270 ft 238 kts 250°
2026-04-30 14:31 51.47523 6.08047 8279 ft 239 kts 268°
2026-04-30 14:31 51.47561 6.05403 8283 ft 239 kts 268°
2026-04-30 14:32 51.47609 6.00045 8289 ft 240 kts 268°
2026-04-30 14:32 51.47611 5.97359 8284 ft 241 kts 267°
2026-04-30 14:32 51.47606 5.94696 8293 ft 241 kts 266°
2026-04-30 14:33 51.47594 5.92011 8280 ft 241 kts 266°
2026-04-30 14:33 51.47554 5.86738 8784 ft 216 kts 266°
2026-04-30 14:33 51.47527 5.84105 7951 ft 243 kts 265°
2026-04-30 14:34 51.47493 5.81360 7360 ft 246 kts 265°
2026-04-30 14:34 51.47457 5.78583 6665 ft 250 kts 265°
2026-04-30 14:34 51.47422 5.75741 5954 ft 251 kts 265°
2026-04-30 14:34 51.47397 5.72901 5327 ft 250 kts 265°
2026-04-30 14:35 51.47317 5.68128 4184 ft 255 kts 264°
2026-04-30 14:35 51.46775 5.64485 3478 ft 242 kts 233°
2026-04-30 14:35 51.45827 5.62423 3220 ft 231 kts 226°
2026-04-30 14:36 51.44776 5.60516 3165 ft 225 kts 223°
2026-04-30 14:36 51.43728 5.58555 2768 ft 236 kts 225°
2026-04-30 14:36 51.42739 5.56587 3016 ft 220 kts 224°
2026-04-30 14:36 51.41800 5.54753 3235 ft 204 kts 223°
2026-04-30 14:37 51.40942 5.53017 3380 ft 195 kts 226°
2026-04-30 14:37 51.40161 5.51233 3332 ft 201 kts 227°
2026-04-30 14:37 51.39347 5.49382 3305 ft 205 kts 227°
2026-04-30 14:37 51.38447 5.47581 3301 ft 207 kts 220°
2026-04-30 14:38 51.37418 5.46058 3293 ft 203 kts 214°
2026-04-30 14:38 51.36344 5.44555 3216 ft 204 kts 214°
2026-04-30 14:38 51.35265 5.43033 3133 ft 210 kts 213°
2026-04-30 14:38 51.34165 5.41523 3117 ft 208 kts 212°
2026-04-30 14:39 51.33079 5.40076 3229 ft 198 kts 214°
2026-04-30 14:39 51.32052 5.38601 3229 ft 201 kts 215°
2026-04-30 14:39 51.31226 5.36755 3057 ft 219 kts 244°
2026-04-30 14:40 51.31337 5.31535 2682 ft 245 kts 292°
2026-04-30 14:40 51.32266 5.29265 2572 ft 249 kts 317°
2026-04-30 14:40 51.33667 5.27701 2621 ft 241 kts 340°
2026-04-30 14:40 51.35247 5.27069 2748 ft 229 kts
2026-04-30 14:41 51.36796 5.27470 2238 ft 227 kts 30°
2026-04-30 14:41 51.37940 5.28739 1916 ft 155 kts 48°
2026-04-30 14:41 51.38616 5.29576 1596 ft 95 kts 48°
2026-04-30 14:41 51.39161 5.30123 1326 ft 90 kts 41°
2026-04-30 14:42 51.39676 5.30641 1060 ft 88 kts 31°
2026-04-30 14:42 51.40269 5.30988 910 ft 87 kts 43°
2026-04-30 14:42 51.40700 5.31459 776 ft 76 kts 47°
2026-04-30 14:42 51.41148 5.32002 655 ft 80 kts 61°
2026-04-30 14:43 51.41512 5.32647 563 ft 78 kts 60°
2026-04-30 14:43 51.41905 5.33253 442 ft 78 kts 51°
2026-04-30 14:43 51.42332 5.33772 333 ft 79 kts 42°
2026-04-30 14:43 51.42761 5.34254 300 ft 70 kts 54°
2026-04-30 14:44 51.43061 5.34799 269 ft 64 kts 65°
2026-04-30 14:44 51.43365 5.35356 182 ft 64 kts 62°
2026-04-30 14:44 51.43668 5.35880 113 ft 66 kts 52°
2026-04-30 14:44 51.44032 5.36319 71 ft 64 kts 39°
2026-04-30 14:45 51.44385 5.36733 70 ft 52 kts 40°
2026-04-30 14:45 51.44611 5.37002 71 ft 31 kts 34°
2026-04-30 14:45 51.44735 5.37072 68 ft 11 kts 325°
2026-04-30 14:45 51.44785 5.36995 70 ft 9 kts 319°
2026-04-30 14:46 51.44837 5.36972 70 ft 16 kts 26°
2026-04-30 14:46 51.44968 5.37123 68 ft 28 kts 31°
2026-04-30 14:46 51.45127 5.37301 67 ft 24 kts 36°
2026-04-30 14:46 51.45205 5.37388 69 ft 18 kts 34°